Location: Castelbiague
(43.0361°N, 0.9246°E)
Time: 14:05:33
(UTC+00:00)

KORONAS-FOTON - Visible Passes

Search period start: 22 October 2021 00:00
Search period end: 01 November 2021 00:00
Orbit: 504 x 531 km, 82.4° (Epoch: 21 October)

Date Brightness Start Highest point End Pass type
(mag) Time Alt. Az. Time Alt. Az. Time Alt. Az.
22 Oct 6.4 03:37:43 10° SE 03:40:24 19° E 03:43:07 10° NE visible
22 Oct 4.7 05:12:42 10° SW 05:15:58 27° WNW 05:19:15 10° NNW visible
23 Oct 6.6 03:25:08 15° ESE 03:25:58 16° E 03:28:19 10° NE visible
23 Oct 4.4 05:00:19 27° WSW 05:01:25 32° WNW 05:04:52 10° N visible
24 Oct 7.0 03:12:22 13° ENE 03:12:22 13° ENE 03:13:25 10° NE visible
24 Oct 4.4 04:47:30 36° NW 04:47:30 36° NW 04:50:28 10° N visible
25 Oct 5.3 04:34:19 24° NNW 04:34:19 24° NNW 04:36:02 10° N visible
26 Oct 6.1 04:20:52 15° N 04:20:52 15° N 04:21:35 10° N visible
